Stations météo

Publicité
Figari, France (7780): Température de l'air & dewpoint: 17.01.2019 22:00:00 - 23.01.2019 22:00:00 (CET)Figari, France (7780): Température de l'air 5cm: 17.01.2019 22:00:00 - 23.01.2019 22:00:00 (CET)Figari, France (7780): Vitesse du vent & gusts: 17.01.2019 22:00:00 - 23.01.2019 22:00:00 (CET)Figari, France (7780): Direction du vent: 17.01.2019 22:00:00 - 23.01.2019 22:00:00 (CET)Figari, France (7780): reduced air pressure: 17.01.2019 22:00:00 - 23.01.2019 22:00:00 (CET)Figari, France (7780): visibility: 17.01.2019 22:00:00 - 23.01.2019 22:00:00 (CET)Figari, France (7780): Quantités de précipitations: 17.01.2019 22:00:00 - 23.01.2019 22:00:00 (CET)
Date & Time tt [°C] td [°C] tt 5cm [°C] ff [km/h] ff [knt] fx [km/h] fx [knt] dd ppp [hPa] vv [km] rr [mm]
23.01.2019 22:00:00 4,6 3,4 4,1 10 5 22 12 NE 988,5 20 0,0
23.01.2019 21:00:00 4,6 3,6 3,7 8 5 19 10 ENE 989,4 15 1,9
23.01.2019 20:00:00 4,3 2,6 3,9 12 6 33 18 NNW 990,3 4,5 4,4
23.01.2019 19:00:00 5,6 4,6 5,0 6 4 33 18 S 990,5 3,5 2,4
23.01.2019 18:00:00 6,2 4,7 4,4 5 3 26 14 W 990,9 20 0,8
23.01.2019 17:00:00 5,4 2,9 4,1 15 8 34 18 WNW 991,7 14 3,3
23.01.2019 16:00:00 5,8 3,6 5,0 20 11 33 18 W 993,0 6 1,2
23.01.2019 15:00:00 6,1 4,1 4,8 7 4 46 25 W 993,3 19 4,2
23.01.2019 14:00:00 8,1 3,7 7,0 21 11 46 25 W 993,7 19 0,2
23.01.2019 13:00:00 8,5 4,3 8,0 26 14 46 25 W 994,8 12 0,2
23.01.2019 12:00:00 7,4 5,4 6,5 16 8 39 21 WSW 995,4 18 0,6
23.01.2019 11:00:00 7,1 5,2 5,7 14 8 52 28 SW 995,9 18 0,6
23.01.2019 10:00:00 7,4 4,5 5,5 29 15 50 27 WSW 996,4 20 0,0
23.01.2019 09:00:00 6,3 3,6 4,2 15 8 35 19 WNW 996,7 8 4,0
23.01.2019 08:00:00 4,3 3,3 2,8 6 3 14 8 NE 997,4 19 0,0
23.01.2019 07:00:00 4,2 2,9 2,6 4 2 8 4 SSE 998,0 16 0,0
23.01.2019 06:00:00 5,2 3,4 1,8 3 2 30 16 SW 998,7 20 0,0
23.01.2019 05:00:00 3,3 1,0 1,1 10 5 19 10 SSW 999,1 20 0,0
23.01.2019 04:00:00 4,4 1,1 0,5 10 5 20 11 SSW 999,6 20 0,0
23.01.2019 03:00:00 4,8 0,9 0,9 10 6 22 12 SSW 1000,6 20 0,0
23.01.2019 02:00:00 4,2 1,4 -3,1 14 7 23 12 SW 1001,3 20 0,0
23.01.2019 01:00:00 1,0 -0,8 -3,1 11 6 17 9 WSW 1001,8 20 0,0
23.01.2019 00:00:00 3,3 1,2 -4,3 11 6 18 10 WSW 1002,7 20 0,0
22.01.2019 23:00:00 -1,4 -2,5 -4,1 5 3 9 5 WSW 1003,2 20 0,0
22.01.2019 22:00:00 -0,2 -1,6 -3,4 4 2 8 4 E 1003,4 20 0,0
22.01.2019 21:00:00 2,2 0,1 -2,5 2 1 15 8 N 1003,9 20 0,0
22.01.2019 20:00:00 3,5 0,5 -1,3 10 5 17 9 SW 1004,1 20 0,0
22.01.2019 19:00:00 7,0 1,9 4,5 11 6 31 17 W 1004,2 20 0,0
22.01.2019 18:00:00 8,2 3,2 7,2 16 9 35 19 WSW 1004,2 20 0,0
22.01.2019 17:00:00 9,0 3,0 7,8 19 10 33 18 WSW 1004,4 20 0,0
22.01.2019 16:00:00 11,5 2,0 12,4 21 11 38 20 W 1004,4 20 0,0
22.01.2019 15:00:00 12,1 2,5 10,9 20 11 41 22 W 1004,8 20 0,0
22.01.2019 14:00:00 10,5 2,3 10,5 22 12 40 22 W 1005,5 20 0,0
22.01.2019 13:00:00 11,9 2,9 16,3 24 13 40 22 W 1006,4 20 0,0
22.01.2019 12:00:00 11,6 3,9 10,1 11 6 42 23 W 1007,2 20 0,0
22.01.2019 11:00:00 10,9 6,6 16,3 7 4 15 8 SSW 1007,8 20 0,0
22.01.2019 10:00:00 8,9 6,7 11,1 3 1 6 3 ESE 1008,0 20 0,0
22.01.2019 09:00:00 5,4 4,8 -0,4 2 1 13 7 SSW 1008,0 20 0,0
22.01.2019 08:00:00 2,5 1,8 -1,0 5 3 11 6 NE 1007,9 18 0,0
22.01.2019 07:00:00 3,4 2,7 1,9 4 2 7 4 NE 1007,9 20 0,0
22.01.2019 06:00:00 3,4 2,8 1,6 5 3 8 5 N 1008,1 20 0,0
22.01.2019 05:00:00 2,7 2,1 -0,9 6 3 9 5 NNE 1008,5 20 0,0
22.01.2019 04:00:00 3,0 2,0 -0,7 5 3 10 5 NE 1008,8 4,4 0,0
22.01.2019 03:00:00 5,4 4,7 3,0 6 4 10 5 NNE 1009,5 20 0,0
22.01.2019 02:00:00 6,3 5,4 5,2 4 2 8 5 NNE 1009,8 20 0,0
22.01.2019 01:00:00 6,4 5,5 5,7 5 3 8 4 N 1010,1 20 0,0
22.01.2019 00:00:00 6,5 5,8 5,3 5 3 11 6 NE 1010,5 20 0,0
21.01.2019 23:00:00 6,3 5,4 5,4 3 2 4 2 ESE 1010,4 7 0,0
21.01.2019 22:00:00 6,6 5,7 5,6 2 1 5 3 NNE 1010,7 15 0,0
21.01.2019 21:00:00 6,7 5,8 5,9 3 2 8 4 E 1010,8 11 0,0
21.01.2019 20:00:00 6,9 6,0 5,9 4 2 7 4 ENE 1010,6 11 0,0
21.01.2019 19:00:00 7,3 6,4 6,2 5 3 8 4 NE 1010,5 17 0,0
21.01.2019 18:00:00 7,6 6,4 6,4 4 2 6 4 ESE 1010,3 13 0,0
21.01.2019 17:00:00 8,4 6,9 8,0 4 2 6 3 W 1010,3 20 0,0
21.01.2019 16:00:00 8,4 6,7 8,3 2 1 14 7 NE 1010,2 20 0,0
21.01.2019 15:00:00 8,4 6,5 8,5 9 5 16 8 NE 1010,3 13 0,0
21.01.2019 14:00:00 8,6 7,1 8,5 8 5 19 10 NE 1010,5 13 0,2
21.01.2019 13:00:00 8,4 6,9 7,8 6 4 16 9 NNE 1010,7 12 1,0
21.01.2019 12:00:00 8,0 6,1 7,3 10 6 25 13 ENE 1011,0 13 0,8
21.01.2019 11:00:00 8,0 5,8 7,3 10 6 20 11 ENE 1011,6 19 0,0
21.01.2019 10:00:00 7,7 5,8 7,0 10 5 19 10 NE 1011,4 20 0,0
21.01.2019 09:00:00 7,6 5,9 7,0 10 6 27 15 ENE 1011,4 20 0,0
21.01.2019 08:00:00 8,1 5,2 7,0 13 7 24 13 NE 1011,2 20 0,0
21.01.2019 07:00:00 7,9 4,8 7,0 13 7 30 16 ENE 1011,0 20 0,0
21.01.2019 06:00:00 8,9 4,3 7,1 17 9 28 15 ENE 1010,9 20 0,0
21.01.2019 05:00:00 7,9 4,3 6,3 13 7 22 12 NE 1011,0 20 0,0
21.01.2019 04:00:00 7,4 4,4 6,6 9 5 16 9 ENE 1011,4 20 0,0
21.01.2019 03:00:00 8,0 4,0 6,6 10 5 19 11 ENE 1011,8 20 0,0
21.01.2019 02:00:00 7,6 4,2 3,8 13 7 22 12 NE 1011,7 20 0,0
21.01.2019 01:00:00 6,4 3,4 3,5 6 4 16 9 ENE 1011,9 20 0,0
21.01.2019 00:00:00 6,3 3,3 3,5 9 5 16 9 NE 1012,2 20 0,0
20.01.2019 23:00:00 6,0 3,5 1,3 7 4 16 9 ENE 1012,0 20 0,0
20.01.2019 22:00:00 3,7 2,4 2,0 4 2 9 5 ESE 1012,0 20 0,0
20.01.2019 21:00:00 3,9 2,6 1,7 3 1 5 3 WSW 1012,2 20 0,0
20.01.2019 20:00:00 4,3 2,8 1,5 5 3 6 3 N 1012,3 20 0,0
20.01.2019 19:00:00 4,8 2,7 1,5 4 2 6 4 NE 1011,8 20 0,0
20.01.2019 18:00:00 6,6 3,9 2,1 4 2 7 4 NNE 1011,7 20 0,0
20.01.2019 17:00:00 9,6 4,6 7,0 2 1 6 3 SSW 1011,4 20 0,0
20.01.2019 16:00:00 12,0 2,4 13,2 2 1 9 5 SSW 1011,3 20 0,0
20.01.2019 15:00:00 11,8 2,5 13,4 6 3 19 10 S 1011,4 20 0,0
20.01.2019 14:00:00 12,5 2,3 15,7 9 5 18 10 S 1011,5 20 0,0
20.01.2019 13:00:00 13,0 2,2 18,1 9 5 17 9 SW 1011,9 20 0,0
20.01.2019 12:00:00 13,1 1,7 18,6 4 2 11 6 SSE 1012,5 20 0,0
20.01.2019 11:00:00 12,2 3,7 15,3 3 2 6 3 SSW 1013,1 20 0,0
20.01.2019 10:00:00 7,7 3,5 6,2 2 1 4 2 ENE 1013,1 20 0,0
20.01.2019 09:00:00 1,4 0,4 -4,2 2 1 14 8 NNE 1013,0 20 0,0
20.01.2019 08:00:00 -1,7 -3,0 -4,6 7 4 12 7 NNE 1012,5 20 0,0
20.01.2019 07:00:00 -1,6 -2,4 -4,9 8 4 11 6 NE 1012,0 20 0,0
20.01.2019 06:00:00 -1,6 -2,6 -4,3 4 2 11 6 NE 1012,0 20 0,0
20.01.2019 05:00:00 -0,4 -1,4 -2,8 3 2 11 6 ENE 1012,1 20 0,0
20.01.2019 04:00:00 0,6 -0,3 -1,8 6 3 13 7 NE 1012,4 20 0,0
20.01.2019 03:00:00 0,8 -0,4 -1,7 4 2 9 5 ENE 1012,8 13 0,0
20.01.2019 02:00:00 2,0 1,0 -1,1 6 3 8 4 NNE 1012,8 20 0,0
20.01.2019 01:00:00 3,7 2,4 1,0 5 3 8 4 NNE 1013,2 20 0,0
20.01.2019 00:00:00 4,0 2,8 -0,6 3 2 7 4 SSE 1013,5 8 0,2
19.01.2019 23:00:00 3,1 1,1 -0,9 5 3 7 4 SW 1013,5 20 0,0
19.01.2019 22:00:00 5,4 3,2 2,7 5 3 8 5 SW 1013,6 20 0,0
19.01.2019 21:00:00 5,9 3,7 4,1 5 3 8 4 WSW 1013,5 20 0,0
19.01.2019 20:00:00 6,0 3,5 4,0 6 3 10 5 SW 1013,5 20 0,0
19.01.2019 19:00:00 7,1 3,7 4,3 6 3 9 5 WSW 1013,3 20 0,0
19.01.2019 18:00:00 8,7 3,7 6,3 6 4 15 8 W 1013,1 20 0,0
19.01.2019 17:00:00 10,2 3,9 9,4 12 6 24 13 WSW 1013,0 20 0,0
19.01.2019 16:00:00 11,6 4,3 12,1 14 8 31 17 WSW 1012,9 20 0,0
19.01.2019 15:00:00 13,3 3,9 13,7 20 11 32 18 WSW 1013,0 20 0,0
19.01.2019 14:00:00 12,2 3,9 14,2 19 11 32 18 W 1013,3 20 0,0
19.01.2019 13:00:00 12,4 4,4 14,6 20 11 33 18 W 1013,7 20 0,0
19.01.2019 12:00:00 12,7 4,1 13,7 21 11 35 19 W 1014,1 20 0,0
19.01.2019 11:00:00 12,5 4,5 14,4 19 10 31 17 WSW 1014,7 20 0,0
19.01.2019 10:00:00 8,3 5,4 1,1 5 3 14 7 SSW 1014,4 20 0,0
19.01.2019 09:00:00 1,1 -0,1 -1,7 3 1 7 4 SE 1014,2 20 0,0
19.01.2019 08:00:00 0,5 -1,0 -2,1 0 0 6 3 N 1014,0 20 0,0
19.01.2019 07:00:00 1,7 0,1 -1,5 5 3 9 5 SSE 1013,7 20 0,0
19.01.2019 06:00:00 3,3 0,2 -0,4 5 3 20 11 SW 1013,7 20 0,0
19.01.2019 05:00:00 8,1 2,7 -3,1 12 6 24 13 WNW 1013,5 20 0,0
19.01.2019 04:00:00 1,4 -0,2 -3,3 10 5 16 9 SW 1014,0 20 0,0
19.01.2019 03:00:00 2,4 0,1 -2,3 9 5 16 9 SW 1014,3 20 0,0
19.01.2019 02:00:00 2,9 -0,2 -1,1 7 4 15 8 SW 1014,2 20 0,0
19.01.2019 01:00:00 5,8 1,3 1,8 10 5 18 10 SW 1014,2 20 0,0
19.01.2019 00:00:00 6,6 1,5 2,4 13 7 24 13 W 1014,7 20 0,0
18.01.2019 23:00:00 7,5 1,6 4,2 16 9 21 11 W 1014,7 20 0,0
18.01.2019 22:00:00 5,7 2,0 2,2 8 4 13 7 SW 1014,7 20 0,0
18.01.2019 21:00:00 6,8 1,1 1,1 8 4 22 12 W 1014,3 20 0,0
18.01.2019 20:00:00 6,8 0,2 3,4 11 6 25 14 SW 1014,3 20 0,0
18.01.2019 19:00:00 8,1 0,8 6,4 14 8 40 21 WSW 1013,9 20 0,0
18.01.2019 18:00:00 9,3 1,0 7,8 23 12 46 25 W 1013,2 20 0,0
18.01.2019 17:00:00 9,7 0,3 8,7 31 17 51 28 W 1012,6 20 0,0
18.01.2019 16:00:00 11,5 2,2 11,2 30 16 58 31 W 1012,5 20 0,0
18.01.2019 15:00:00 12,2 2,1 11,3 29 16 62 34 W 1012,3 20 0,0
18.01.2019 14:00:00 12,8 2,3 14,0 27 15 47 26 W 1012,8 20 0,0
18.01.2019 13:00:00 12,8 3,4 12,7 29 16 50 27 W 1013,0 20 0,0
18.01.2019 12:00:00 13,2 3,8 14,9 28 15 47 26 W 1013,5 20 0,0
18.01.2019 11:00:00 12,8 4,0 12,9 26 14 46 25 W 1013,7 20 0,0
18.01.2019 10:00:00 12,6 5,0 11,7 22 12 37 20 W 1013,3 20 0,0
18.01.2019 09:00:00 10,0 4,1 7,3 19 10 34 18 WSW 1013,0 20 0,0
18.01.2019 08:00:00 8,5 4,1 6,4 18 10 27 15 WSW 1012,7 20 0,0
18.01.2019 07:00:00 8,5 4,1 5,6 16 9 27 15 WSW 1012,4 20 0,0
18.01.2019 06:00:00 8,2 4,2 5,9 13 7 29 16 WSW 1012,2 20 0,0
18.01.2019 05:00:00 9,1 4,7 7,0 16 9 42 23 SW 1012,5 20 0,0
18.01.2019 04:00:00 10,6 6,5 8,3 18 10 36 20 W 1012,6 20 0,0
18.01.2019 03:00:00 10,4 6,9 8,6 18 10 37 20 WSW 1013,3 20 0,0
18.01.2019 02:00:00 10,7 7,4 8,9 16 9 35 19 WSW 1013,3 20 0,0
18.01.2019 01:00:00 10,5 8,1 8,0 16 9 33 18 SW 1013,6 20 0,0
18.01.2019 00:00:00 10,2 7,3 8,1 13 7 32 17 WSW 1014,1 20 0,0
17.01.2019 23:00:00 10,5 8,4 7,4 16 8 24 13 SW 1014,4 20 0,0
17.01.2019 22:00:00 9,5 7,8 7,6 13 7 30 16 WSW 1014,2 20 0,0

tt = Température de l'air
td = dewpoint
tt 5cm = Température de l'air 5cm
ff = Vitesse du vent
fx = gusts
dd = Direction du vent
ppp = reduced air pressure
vv = visibility
rr = Quantités de précipitations

stations d'obs. à proximité